Overview Statistics Trail Chart Weather Telemetry Raw packets
 

This is the latest recevied weather packets stored in our database for station/object IW4EGP-3. If no packets are shown the sender has not sent any weather packets the latest 10 day(s).

<< 55 56 57 58 59 >>
Time Temp. Humidity Pressure Rain* Wind** Luminosity Snow
1787723533 23.89° C 64% 1018 hPa 0 mm - - -
1787722634 23.33° C 68% 1017.8 hPa 0 mm - - -
1787721734 22.78° C 69% 1017.8 hPa 0 mm - - -
1787720832 22.78° C 69% 1017.4 hPa 0 mm - - -
1787719976 21.67° C 70% 1017.3 hPa 0 mm - - -
1787719933 21.67° C 70% 1017.3 hPa 0 mm - - -
1787719073 21.67° C 71% 1017 hPa 0 mm - - -
1787719032 21.67° C 71% 1017 hPa 0 mm - - -
1787718174 21.67° C 71% 1017.2 hPa 0 mm - - -
1787718131 21.67° C 71% 1017.2 hPa 0 mm - - -
1787717234 21.67° C 71% 1017.1 hPa 0 mm - - -
1787716333 21.67° C 72% 1017.2 hPa 0 mm - - -
1787715431 21.11° C 72% 1017.1 hPa 0 mm - - -
1787714532 20.56° C 75% 1016.9 hPa 0 mm - - -
1787713632 21.67° C 73% 1016.9 hPa 0 mm - - -
1787712732 22.22° C 69% 1017.2 hPa 0 mm - - -
1787711832 21.67° C 71% 1016.7 hPa 0 mm - - -
1787710932 22.78° C 68% 1016.7 hPa 0 mm - - -
1787710032 22.22° C 70% 1016.6 hPa 0 mm - - -
1787709182 22.78° C 69% 1016.4 hPa 0 mm - - -
1787709132 22.78° C 69% 1016.4 hPa 0 mm - - -
1787708231 22.22° C 70% 1016.3 hPa 0 mm - - -
1787707331 22.22° C 70% 1016.1 hPa 0 mm - - -
1787706478 22.22° C 72% 1016.1 hPa 0 mm - - -
1787706433 22.22° C 72% 1016.1 hPa 0 mm - - -

* Rain latest hour (hover to see other rain measurements)
** Current wind speed in m/s (hover to see current wind gust speed)